Погода в Соленом Займище

Россия / Астраханская область     47°55′17″N   46°08′01″E
темп.,
°C
ветер,
м/с
пор.,
м/с
влажн.,
%
обл.,
%
осадки,
мм/ч
давл.,
гПа
погр.,
м
18 мая, вт
вт1801:00+21в5102219 0.0 1008143
04:00+20в512245 0.0 1007183
07:00+21вюв515320 0.0 1007406
10:00+29юв812225 0.0 10061035
13:00+32ююв8111792 0.0 10062220
16:00+29зюз4428100 0.0 1007695
19:00+26вюв492956 0.0 1008228
22:00+21зюз46535 0.0 1009117
19 мая, ср
ср1901:00+18зсз6107986 0.0 1009291
04:00+16зсз48862 0.0 1009186
07:00+18сз34751 0.0 1009174
10:00+24сз325118 0.0 1008619
13:00+29юз1232100 0.0 10071419
16:00+30зюз542994 0.0 10071966
19:00+22з9155394 0.1 1009656
22:00+17з71368100 0.3 1013621
20 мая, чт
чт2001:00+16з3871100 0.3 1014428
04:00+15зюз51076100 0.3 1014323
07:00+15з587546 0.0 1015439
10:00+20зюз56540 0.0 10151189
13:00+23зюз6740100 0.0 10152008
16:00+25з68345 0.0 10142504
19:00+24зюз56352 0.0 10142170
22:00+19сз35555 0.0 101576
21 мая, пт
пт2101:00+17ссв22590 0.0 101617
04:00+17вюв2260100 0.0 101614
07:00+19вюв355768 0.0 1017164
10:00+25ююв4534100 0.0 1017902
13:00+29ююв4427100 0.0 10161916
16:00+30юв662510 0.0 10162143
19:00+29юв472829 0.0 1015307
22:00+23юв5113934 0.0 1016217
22 мая, сб
сб2201:00+21вюв412395 0.0 1015236
04:00+21вюв616405 0.0 1015328
07:00+23вюв81737100 0.0 1015586
10:00+29юв111428100 0.0 1014991
13:00+34юв1113215 0.0 10132037
16:00+34юв10121851 0.0 10122177
19:00+31ююв712225 0.0 1012528
22:00+25вюв4122963 0.0 1013196